Time,TemperatureF,DewpointF,PressureIn,WindDirection,WindDirectionDegrees,WindSpeedMPH,WindSpeedGustMPH,Humidity,HourlyPrecipIn,Conditions,Clouds,dailyrainin,SolarRadiationWatts/m^2,SoftwareType,DateUTC
2013-01-26 00:03:00,36.0,36.0,-100.00,ENE,65,2.0,6.0,99,0.01,,,0.23,0.000000,,2013-01-26 05:03:00,
2013-01-26 00:33:00,39.0,39.0,-100.00,West,273,2.0,7.0,99,0.00,,,0.23,0.000000,,2013-01-26 05:33:00,
2013-01-26 00:42:00,39.0,39.0,-100.00,West,273,2.0,7.0,99,0.00,,,0.23,0.000000,,2013-01-26 05:42:00,
2013-01-26 00:53:00,39.0,39.0,-100.00,West,273,2.0,7.0,99,0.00,,,0.23,0.000000,,2013-01-26 05:53:00,
2013-01-26 01:03:00,39.0,39.0,-100.00,West,273,2.0,7.0,99,0.00,,,0.23,0.000000,,2013-01-26 06:03:00,
2013-01-26 01:32:00,38.0,38.0,-100.00,NNE,28,1.0,7.0,99,0.00,,,0.23,0.000000,,2013-01-26 06:32:00,
2013-01-26 01:42:00,38.0,38.0,-100.00,NNE,28,1.0,7.0,99,0.00,,,0.23,0.000000,,2013-01-26 06:42:00,
2013-01-26 01:52:00,38.0,38.0,-100.00,NNE,28,1.0,7.0,99,0.00,,,0.23,0.000000,,2013-01-26 06:52:00,
2013-01-26 02:02:00,38.0,38.0,-100.00,NNE,28,1.0,7.0,99,0.00,,,0.23,0.000000,,2013-01-26 07:02:00,
2013-01-26 02:33:00,37.0,37.0,-100.00,West,280,2.0,4.0,99,0.00,,,0.23,0.000000,,2013-01-26 07:33:00,
2013-01-26 02:42:00,37.0,37.0,-100.00,West,280,2.0,4.0,99,0.00,,,0.23,0.000000,,2013-01-26 07:42:00,
2013-01-26 02:52:00,37.0,37.0,-100.00,West,280,2.0,4.0,99,0.00,,,0.23,0.000000,,2013-01-26 07:52:00,
2013-01-26 03:02:00,37.0,37.0,-100.00,West,280,2.0,4.0,99,0.00,,,0.23,0.000000,,2013-01-26 08:02:00,
2013-01-26 03:32:00,35.0,34.0,-100.00,WNW,301,2.0,6.0,98,0.00,,,0.23,0.000000,,2013-01-26 08:32:00,
2013-01-26 03:42:00,35.0,34.0,-100.00,WNW,301,2.0,6.0,98,0.00,,,0.23,0.000000,,2013-01-26 08:42:00,
2013-01-26 03:54:00,35.0,34.0,-100.00,WNW,301,2.0,6.0,98,0.00,,,0.23,0.000000,,2013-01-26 08:54:00,
2013-01-26 04:02:00,35.0,34.0,-100.00,WNW,301,2.0,6.0,98,0.00,,,0.23,0.000000,,2013-01-26 09:02:00,
2013-01-26 04:32:00,33.0,32.0,-100.00,SSW,197,1.0,6.0,98,0.00,,,0.23,0.000000,,2013-01-26 09:32:00,
2013-01-26 04:42:00,33.0,32.0,-100.00,SSW,197,1.0,6.0,98,0.00,,,0.23,0.000000,,2013-01-26 09:42:00,
2013-01-26 04:52:00,33.0,32.0,-100.00,SSW,197,1.0,6.0,98,0.00,,,0.23,0.000000,,2013-01-26 09:52:00,
2013-01-26 05:01:00,33.0,32.0,-100.00,SSW,197,1.0,6.0,98,0.00,,,0.23,0.000000,,2013-01-26 10:01:00,
2013-01-26 05:32:00,31.0,31.0,-100.00,SSE,149,1.0,5.0,98,0.00,,,0.23,0.000000,,2013-01-26 10:32:00,
2013-01-26 05:43:00,31.0,31.0,-100.00,SSE,149,1.0,5.0,98,0.00,,,0.23,0.000000,,2013-01-26 10:43:00,
2013-01-26 05:52:00,31.0,31.0,-100.00,SSE,149,1.0,5.0,98,0.00,,,0.23,0.000000,,2013-01-26 10:52:00,
2013-01-26 06:02:00,31.0,31.0,-100.00,SSE,149,1.0,5.0,98,0.00,,,0.23,0.000000,,2013-01-26 11:02:00,
2013-01-26 06:32:00,31.0,31.0,-100.00,South,176,1.0,6.0,98,0.00,,,0.23,0.000000,,2013-01-26 11:32:00,
2013-01-26 06:42:00,31.0,31.0,-100.00,South,176,1.0,6.0,98,0.00,,,0.23,0.000000,,2013-01-26 11:42:00,
2013-01-26 06:52:00,31.0,31.0,-100.00,South,176,1.0,6.0,98,0.00,,,0.23,0.000000,,2013-01-26 11:52:00,
2013-01-26 07:02:00,31.0,31.0,-100.00,South,176,1.0,6.0,98,0.00,,,0.23,0.000000,,2013-01-26 12:02:00,
2013-01-26 07:33:00,30.0,29.0,-100.00,South,177,1.0,4.0,98,0.00,,,0.23,0.000000,,2013-01-26 12:33:00,
2013-01-26 07:42:00,30.0,29.0,-100.00,South,177,1.0,4.0,98,0.00,,,0.23,0.000000,,2013-01-26 12:42:00,
2013-01-26 07:53:00,30.0,29.0,-100.00,South,177,1.0,4.0,98,0.00,,,0.23,0.000000,,2013-01-26 12:53:00,
2013-01-26 08:03:00,30.0,29.0,-100.00,South,177,1.0,4.0,98,0.00,,,0.23,0.000000,,2013-01-26 13:03:00,
2013-01-26 08:33:00,30.0,29.0,-100.00,SSW,192,1.0,7.0,95,0.00,,,0.23,4.000000,,2013-01-26 13:33:00,
2013-01-26 08:42:00,30.0,29.0,-100.00,SSW,192,1.0,7.0,95,0.00,,,0.23,4.000000,,2013-01-26 13:42:00,
2013-01-26 08:53:00,30.0,29.0,-100.00,SSW,192,1.0,7.0,95,0.00,,,0.23,4.000000,,2013-01-26 13:53:00,
2013-01-26 09:03:00,30.0,29.0,-100.00,SSW,192,1.0,7.0,95,0.00,,,0.23,4.000000,,2013-01-26 14:03:00,
2013-01-26 09:32:00,31.0,30.0,-100.00,South,172,1.0,5.0,95,0.00,,,0.23,49.000000,,2013-01-26 14:32:00,
2013-01-26 09:43:00,31.0,30.0,-100.00,South,172,1.0,5.0,95,0.00,,,0.23,49.000000,,2013-01-26 14:43:00,
2013-01-26 09:53:00,31.0,30.0,-100.00,South,172,1.0,5.0,95,0.00,,,0.23,49.000000,,2013-01-26 14:53:00,
2013-01-26 10:03:00,31.0,30.0,-100.00,South,172,1.0,5.0,95,0.00,,,0.23,49.000000,,2013-01-26 15:03:00,
2013-01-26 10:33:00,32.0,31.0,-100.00,SSE,159,1.0,4.0,95,0.00,,,0.23,134.000000,,2013-01-26 15:33:00,
2013-01-26 10:43:00,32.0,31.0,-100.00,SSE,159,1.0,4.0,95,0.00,,,0.23,134.000000,,2013-01-26 15:43:00,
2013-01-26 10:53:00,32.0,31.0,-100.00,SSE,159,1.0,4.0,95,0.00,,,0.23,134.000000,,2013-01-26 15:53:00,
2013-01-26 11:02:00,32.0,31.0,-100.00,SSE,159,1.0,4.0,95,0.00,,,0.23,134.000000,,2013-01-26 16:02:00,
2013-01-26 11:33:00,36.0,35.0,-100.00,SSW,204,3.0,6.0,95,0.00,,,0.23,209.000000,,2013-01-26 16:33:00,
2013-01-26 11:43:00,36.0,35.0,-100.00,SSW,204,3.0,6.0,95,0.00,,,0.23,209.000000,,2013-01-26 16:43:00,
2013-01-26 11:53:00,36.0,35.0,-100.00,SSW,204,3.0,6.0,95,0.00,,,0.23,209.000000,,2013-01-26 16:53:00,
2013-01-26 12:03:00,36.0,35.0,-100.00,SSW,204,3.0,6.0,95,0.00,,,0.23,209.000000,,2013-01-26 17:03:00,
2013-01-26 12:33:00,39.0,33.0,-100.00,South,172,2.0,8.0,79,0.00,,,0.23,224.000000,,2013-01-26 17:33:00,
2013-01-26 12:42:00,39.0,33.0,-100.00,South,172,2.0,8.0,79,0.00,,,0.23,224.000000,,2013-01-26 17:42:00,
2013-01-26 12:53:00,39.0,33.0,-100.00,South,172,2.0,8.0,79,0.00,,,0.23,224.000000,,2013-01-26 17:53:00,
2013-01-26 13:03:00,39.0,33.0,-100.00,South,172,2.0,8.0,79,0.00,,,0.23,224.000000,,2013-01-26 18:03:00,
2013-01-26 13:33:00,46.0,24.0,-100.00,NW,326,4.0,13.0,42,0.00,,,0.23,363.000000,,2013-01-26 18:33:00,
2013-01-26 13:42:00,46.0,24.0,-100.00,NW,326,4.0,13.0,42,0.00,,,0.23,363.000000,,2013-01-26 18:42:00,
2013-01-26 13:53:00,46.0,24.0,-100.00,NW,326,4.0,13.0,42,0.00,,,0.23,363.000000,,2013-01-26 18:53:00,
2013-01-26 14:03:00,46.0,24.0,-100.00,NW,326,4.0,13.0,42,0.00,,,0.23,363.000000,,2013-01-26 19:03:00,
2013-01-26 14:33:00,46.0,24.0,-100.00,NW,326,4.0,12.0,41,0.00,,,0.23,437.000000,,2013-01-26 19:33:00,
2013-01-26 14:43:00,46.0,24.0,-100.00,NW,326,4.0,12.0,41,0.00,,,0.23,437.000000,,2013-01-26 19:43:00,
2013-01-26 14:53:00,46.0,24.0,-100.00,NW,326,4.0,12.0,41,0.00,,,0.23,437.000000,,2013-01-26 19:53:00,
2013-01-26 15:02:00,46.0,24.0,-100.00,NW,326,4.0,12.0,41,0.00,,,0.23,437.000000,,2013-01-26 20:02:00,
2013-01-26 15:32:00,50.0,22.0,-100.00,WNW,297,4.0,11.0,33,0.00,,,0.23,571.000000,,2013-01-26 20:32:00,
2013-01-26 15:42:00,50.0,22.0,-100.00,WNW,297,4.0,11.0,33,0.00,,,0.23,571.000000,,2013-01-26 20:42:00,
2013-01-26 15:52:00,50.0,22.0,-100.00,WNW,297,4.0,11.0,33,0.00,,,0.23,571.000000,,2013-01-26 20:52:00,
2013-01-26 16:03:00,50.0,22.0,-100.00,WNW,297,4.0,11.0,33,0.00,,,0.23,571.000000,,2013-01-26 21:03:00,
2013-01-26 16:32:00,49.0,20.0,-100.00,WNW,299,6.0,11.0,32,0.00,,,0.23,455.000000,,2013-01-26 21:32:00,
2013-01-26 16:43:00,49.0,20.0,-100.00,WNW,299,6.0,11.0,32,0.00,,,0.23,455.000000,,2013-01-26 21:43:00,
2013-01-26 16:52:00,49.0,20.0,-100.00,WNW,299,6.0,11.0,32,0.00,,,0.23,455.000000,,2013-01-26 21:52:00,
2013-01-26 17:02:00,49.0,20.0,-100.00,WNW,299,6.0,11.0,32,0.00,,,0.23,455.000000,,2013-01-26 22:02:00,
2013-01-26 17:32:00,47.0,19.0,-100.00,West,270,6.0,10.0,33,0.00,,,0.22,248.000000,,2013-01-26 22:32:00,
2013-01-26 17:42:00,47.0,19.0,-100.00,West,270,6.0,10.0,33,0.00,,,0.22,248.000000,,2013-01-26 22:42:00,
2013-01-26 17:52:00,47.0,19.0,-100.00,West,270,6.0,10.0,33,0.00,,,0.22,248.000000,,2013-01-26 22:52:00,
2013-01-26 18:02:00,47.0,19.0,-100.00,West,270,6.0,10.0,33,0.00,,,0.22,248.000000,,2013-01-26 23:02:00,
2013-01-26 18:33:00,42.0,19.0,-100.00,NNW,327,2.0,10.0,39,0.00,,,0.22,16.000000,,2013-01-26 23:33:00,
2013-01-26 18:42:00,42.0,19.0,-100.00,NNW,327,2.0,10.0,39,0.00,,,0.22,16.000000,,2013-01-26 23:42:00,
2013-01-26 18:52:00,42.0,19.0,-100.00,NNW,327,2.0,10.0,39,0.00,,,0.22,16.000000,,2013-01-26 23:52:00,
2013-01-26 19:02:00,42.0,19.0,-100.00,NNW,327,2.0,10.0,39,0.00,,,0.22,16.000000,,2013-01-27 00:02:00,
2013-01-26 19:32:00,36.0,24.0,-100.00,NW,323,2.0,6.0,61,0.00,,,0.19,0.000000,,2013-01-27 00:32:00,
2013-01-26 19:42:00,36.0,24.0,-100.00,NW,323,2.0,6.0,61,0.00,,,0.19,0.000000,,2013-01-27 00:42:00,
2013-01-26 19:52:00,36.0,24.0,-100.00,NW,323,2.0,6.0,61,0.00,,,0.19,0.000000,,2013-01-27 00:52:00,
2013-01-26 20:01:00,36.0,24.0,-100.00,NW,323,2.0,6.0,61,0.00,,,0.19,0.000000,,2013-01-27 01:01:00,
2013-01-26 20:32:00,32.0,25.0,-100.00,NE,56,2.0,4.0,75,0.00,,,0.06,0.000000,,2013-01-27 01:32:00,
2013-01-26 20:42:00,32.0,25.0,-100.00,NE,56,2.0,4.0,75,0.00,,,0.06,0.000000,,2013-01-27 01:42:00,
2013-01-26 20:52:00,32.0,25.0,-100.00,NE,56,2.0,4.0,75,0.00,,,0.06,0.000000,,2013-01-27 01:52:00,
2013-01-26 21:01:00,32.0,25.0,-100.00,NE,56,2.0,4.0,75,0.00,,,0.06,0.000000,,2013-01-27 02:01:00,
2013-01-26 21:32:00,29.0,24.0,-100.00,North,358,1.0,5.0,82,0.00,,,0.01,0.000000,,2013-01-27 02:32:00,
2013-01-26 21:42:00,29.0,24.0,-100.00,North,358,1.0,5.0,82,0.00,,,0.01,0.000000,,2013-01-27 02:42:00,
2013-01-26 21:52:00,29.0,24.0,-100.00,North,358,1.0,5.0,82,0.00,,,0.01,0.000000,,2013-01-27 02:52:00,
2013-01-26 22:02:00,29.0,24.0,-100.00,North,358,1.0,5.0,82,0.00,,,0.01,0.000000,,2013-01-27 03:02:00,
2013-01-26 22:32:00,28.0,26.0,-100.00,NE,38,2.0,4.0,91,0.00,,,0.01,0.000000,,2013-01-27 03:32:00,
2013-01-26 22:42:00,28.0,26.0,-100.00,NE,38,2.0,4.0,91,0.00,,,0.01,0.000000,,2013-01-27 03:42:00,
2013-01-26 22:52:00,28.0,26.0,-100.00,NE,38,2.0,4.0,91,0.00,,,0.01,0.000000,,2013-01-27 03:52:00,
2013-01-26 23:02:00,28.0,26.0,-100.00,NE,38,2.0,4.0,91,0.00,,,0.01,0.000000,,2013-01-27 04:02:00,
2013-01-26 23:32:00,27.0,25.0,-100.00,NE,50,1.0,3.0,93,0.00,,,0.00,0.000000,,2013-01-27 04:32:00,
2013-01-26 23:42:00,27.0,25.0,-100.00,NE,50,1.0,3.0,93,0.00,,,0.00,0.000000,,2013-01-27 04:42:00,
2013-01-26 23:52:00,27.0,25.0,-100.00,NE,50,1.0,3.0,93,0.00,,,0.00,0.000000,,2013-01-27 04:52:00,